1504756800.25,45425,13.94,73310.8,-0.79,-30.73,-31.61,0,*6E
1504756801.49,45426,13.94,73306.5,-0.81,-30.77,-31.45,0,*68
1504756802.69,45427,14.0,73302.3,-0.81,-30.45,-31.29,0,*62
1504756803.92,45428,14.0,73300.5,-0.83,-30.27,-31.01,0,*61
1504756805.13,45429,13.94,73286.5,-0.81,-30.11,-30.83,0,*6C
1504756806.36,45430,13.94,73290.3,-0.81,-29.39,-30.11,0,*6D
1504756807.59,45431,13.94,73282.8,-0.81,-29.17,-29.95,0,*64
1504756808.82,45432,13.94,73278.0,-0.79,-28.97,-29.57,0,*67
1504756810.06,45433,13.94,73262.3,-0.81,-29.51,-30.23,0,*61
1504756811.29,45434,13.94,73262.5,-0.79,-29.57,-30.23,0,*67
1504756812.55,45435,13.94,73274.3,-0.79,-29.67,-30.51,0,*60
1504756813.78,45436,13.94,73264.5,-0.79,-29.57,-30.23,0,*65
1504756815.02,45437,13.94,73270.8,-0.79,-29.67,-30.33,0,*66
1504756816.22,45438,13.94,73254.3,-0.77,-29.57,-30.23,0,*65
1504756817.45,45439,13.94,73258.3,-0.77,-29.13,-29.83,0,*66
1504756818.7,45440,13.94,73260.5,-0.75,-29.13,-29.79,0,*6F
1504756819.95,45441,13.94,73268.0,-0.75,-29.13,-29.67,0,*61
1504756821.2,45442,13.94,73280.3,-0.75,-29.29,-29.95,0,*66
1504756822.4,45443,13.94,73280.5,-0.73,-29.07,-29.61,0,*66
1504756823.62,45444,13.94,73276.8,-0.73,-29.13,-29.83,0,*68
1504756824.85,45445,13.94,73276.5,-0.73,-29.45,-30.17,0,*6F
1504756826.13,45446,13.94,73292.8,-0.71,-29.35,-30.05,0,*6A
1504756827.36,45447,14.0,73284.5,-0.71,-29.61,-30.27,0,*6A
1504756828.63,45448,13.94,73296.8,-0.71,-29.73,-30.39,0,*69
1504756829.87,45449,13.94,73288.8,-0.71,-29.95,-30.67,0,*6B
1504756831.11,45450,13.94,73284.3,-0.71,-30.39,-31.17,0,*6B
1504756832.38,45451,13.94,73304.5,-0.71,-30.39,-31.11,0,*6C
1504756833.61,45452,13.94,73312.3,-0.73,-30.67,-31.39,0,*6C
1504756834.82,45453,13.94,73302.0,-0.73,-30.51,-31.05,0,*67
1504756836.03,45454,13.94,73312.5,-0.73,-30.27,-31.01,0,*65
1504756837.25,45455,13.94,73314.8,-0.75,-29.61,-30.11,0,*68
1504756838.45,45456,13.94,73298.5,-0.73,-29.23,-29.61,0,*64
1504756839.7,45457,13.94,73302.8,-0.73,-28.43,-28.91,0,*6C
1504756840.93,45458,14.0,73298.5,-0.73,-28.47,-29.13,0,*6C
1504756842.21,45459,13.94,73278.0,-0.71,-28.75,-29.35,0,*6A
1504756843.43,45460,13.94,73294.3,-0.69,-28.53,-29.01,0,*6A
1504756844.65,45461,13.94,73278.5,-0.69,-28.15,-28.75,0,*6B
1504756845.9,45462,13.94,73294.5,-0.67,-29.17,-29.67,0,*67
1504756847.17,45463,13.94,73296.8,-0.67,-28.47,-29.01,0,*62
1504756848.4,45464,13.94,73298.8,-0.67,-28.31,-28.85,0,*69
1504756849.66,45465,13.94,73292.3,-0.67,-28.69,-29.35,0,*6F
1504756850.89,45466,13.94,73296.3,-0.61,-28.91,-29.45,0,*6A
1504756852.12,45467,13.94,73290.3,-0.61,-29.45,-30.05,0,*6F
1504756853.35,45468,13.94,73298.5,-0.63,-29.67,-30.27,0,*62
1504756854.61,45469,13.94,73304.5,-0.63,-29.95,-30.73,0,*6F
1504756855.84,45470,13.94,73308.5,-0.61,-30.01,-30.67,0,*65
1504756857.07,45471,13.94,73308.8,-0.63,-29.95,-30.45,0,*63
1504756858.36,45472,13.94,73312.0,-0.63,-30.01,-30.73,0,*60
1504756859.56,45473,13.94,73310.0,-0.61,-29.83,-30.45,0,*64
1504756860.8,45474,13.94,73302.0,-0.63,-30.11,-30.67,0,*62
1504756862.06,45475,13.94,73312.8,-0.63,-30.17,-30.83,0,*6F
1504756863.32,45476,13.94,73320.5,-0.63,-30.27,-30.89,0,*65
1504756864.58,45477,13.94,73316.5,-0.67,-30.33,-30.77,0,*64
1504756865.85,45478,13.94,73308.5,-0.67,-30.51,-31.11,0,*6E
1504756867.08,45479,13.94,73308.3,-0.63,-30.33,-31.01,0,*6E
1504756868.36,45480,13.94,73312.0,-0.67,-30.51,-31.23,0,*68
1504756869.58,45481,13.94,73310.0,-0.69,-30.61,-31.29,0,*6E
1504756870.83,45482,13.94,73314.3,-0.67,-30.51,-31.05,0,*6E
1504756872.07,45483,13.94,73316.0,-0.69,-30.55,-31.11,0,*60
1504756873.32,45484,13.94,73312.0,-0.67,-30.23,-30.95,0,*65
1504756874.55,45485,13.94,73314.0,-0.69,-30.05,-30.67,0,*63
1504756875.76,45486,13.94,73318.8,-0.69,-30.23,-30.67,0,*64
1504756876.96,45487,13.94,73314.0,-0.69,-30.11,-30.67,0,*64
1504756878.19,45488,13.94,73304.5,-0.69,-30.11,-30.55,0,*6A
1504756879.44,45489,13.94,73310.3,-0.69,-29.89,-30.39,0,*68
1504756880.64,45490,13.94,73302.3,-0.69,-29.45,-29.95,0,*6E
1504756881.89,45491,13.94,73296.0,-0.69,-28.43,-29.01,0,*65
1504756883.17,45492,13.94,73296.3,-0.67,-28.25,-28.63,0,*6D
1504756884.44,45493,13.94,73296.3,-0.63,-28.63,-29.13,0,*6C
1504756885.73,45494,13.94,73296.3,-0.63,-28.25,-28.63,0,*6F
1504756886.98,45495,13.94,73308.5,-0.61,-28.21,-28.59,0,*61
1504756888.24,45496,13.94,73310.5,-0.59,-28.05,-28.53,0,*65
1504756889.47,45497,13.94,73306.0,-0.59,-28.15,-28.69,0,*6C
1504756890.69,45498,13.94,73298.5,-0.57,-28.69,-29.17,0,*6E
1504756891.94,45499,13.94,73288.3,-0.59,-28.69,-29.17,0,*61
1504756893.19,45500,13.94,73292.0,-0.55,-29.13,-29.67,0,*67
1504756894.42,45501,13.94,73270.3,-0.57,-29.57,-30.05,0,*68
1504756895.67,45502,13.94,73270.0,-0.55,-29.73,-30.23,0,*6B
1504756896.89,45503,13.94,73290.3,-0.57,-29.79,-30.51,0,*67
1504756898.12,45504,13.94,73302.5,-0.59,-29.79,-30.27,0,*6F
1504756899.32,45505,13.94,73282.5,-0.57,-29.79,-30.23,0,*64
1504756900.61,45506,13.94,73272.5,-0.55,-29.51,-30.01,0,*6F
1504756901.88,45507,13.94,73270.3,-0.59,-30.05,-30.51,0,*6E
1504756903.11,45508,13.94,73266.3,-0.59,-29.79,-30.27,0,*63
1504756904.34,45509,13.94,73264.5,-0.59,-29.79,-30.11,0,*67
1504756905.55,45510,13.94,73252.8,-0.57,-29.57,-29.95,0,*69
1504756906.74,45511,13.94,73278.3,-0.57,-29.61,-30.11,0,*69
1504756907.97,45512,13.94,73274.5,-0.57,-29.57,-30.05,0,*6A
1504756909.23,45513,13.94,73276.8,-0.57,-29.89,-30.51,0,*69
1504756910.45,45514,13.94,73278.5,-0.57,-29.79,-30.39,0,*6F
1504756911.68,45515,13.94,73278.0,-0.57,-29.73,-30.23,0,*6F
1504756912.94,45516,13.94,73294.8,-0.59,-29.95,-30.51,0,*6F
1504756914.17,45517,13.94,73292.3,-0.59,-30.11,-30.67,0,*6F
1504756915.41,45518,13.94,73292.8,-0.59,-30.23,-30.67,0,*61
1504756916.68,45519,13.94,73290.8,-0.59,-30.05,-30.51,0,*61
1504756917.96,45520,13.94,73296.5,-0.59,-30.05,-30.51,0,*6B
1504756919.21,45521,13.94,73292.0,-0.59,-29.79,-30.39,0,*67
1504756920.5,45522,13.94,73308.5,-0.59,-29.39,-29.89,0,*63
1504756921.73,45523,13.94,73300.5,-0.59,-29.79,-30.27,0,*6A
1504756922.99,45524,13.94,73288.3,-0.59,-29.95,-30.51,0,*6E
1504756924.25,45525,13.94,73276.5,-0.59,-29.61,-30.05,0,*65
1504756925.48,45526,13.94,73294.8,-0.59,-29.07,-29.61,0,*6C
1504756926.67,45527,13.94,73284.5,-0.57,-28.85,-29.23,0,*6E
1504756927.89,45528,13.94,73286.8,-0.57,-29.29,-29.79,0,*69
1504756929.1,45529,13.94,73294.8,-0.57,-29.57,-30.11,0,*67
1504756930.35,45530,13.94,73288.0,-0.57,-29.89,-30.39,0,*66
1504756931.6,45531,13.94,73288.5,-0.59,-29.79,-30.39,0,*66
1504756932.84,45532,13.94,73296.0,-0.59,-29.61,-30.23,0,*67
1504756934.07,45533,13.94,73298.0,-0.57,-29.45,-29.89,0,*66
1504756935.33,45534,13.94,73302.0,-0.59,-29.39,-29.95,0,*69
1504756936.59,45535,13.94,73298.8,-0.59,-29.23,-29.73,0,*6B
1504756937.84,45536,13.94,73282.8,-0.55,-29.57,-30.17,0,*6D
1504756939.08,45537,13.94,73280.0,-0.55,-29.83,-30.33,0,*63
1504756940.3,45538,13.94,73276.5,-0.57,-29.79,-30.39,0,*61
1504756941.59,45539,13.94,73274.8,-0.59,-29.89,-30.39,0,*61
1504756942.81,45540,13.94,73272.3,-0.59,-29.79,-30.23,0,*6B
1504756944.04,45541,13.94,73278.3,-0.57,-29.79,-30.39,0,*6F
1504756945.24,45542,13.94,73272.0,-0.57,-29.79,-30.27,0,*63
1504756946.5,45543,13.94,73280.5,-0.59,-29.89,-30.27,0,*63
1504756947.73,45544,13.94,73276.0,-0.59,-29.79,-30.27,0,*6B
1504756949.01,45545,13.94,73272.3,-0.59,-29.89,-30.51,0,*64
1504756950.24,45546,13.94,73278.0,-0.57,-29.79,-30.39,0,*68
1504756951.47,45547,13.94,73276.0,-0.59,-29.79,-30.27,0,*68
1504756952.72,45548,13.94,73272.0,-0.59,-29.79,-30.39,0,*68
1504756953.98,45549,13.94,73276.5,-0.57,-29.89,-30.51,0,*66
1504756955.23,45550,13.94,73288.0,-0.59,-30.39,-30.83,0,*6C
1504756956.43,45551,13.94,73302.3,-0.57,-29.61,-30.11,0,*6D
1504756957.67,45552,13.94,73302.5,-0.59,-29.45,-30.23,0,*67
1504756958.92,45553,13.94,73296.8,-0.59,-29.73,-30.27,0,*67
1504756960.21,45554,13.94,73300.0,-0.59,-29.89,-30.51,0,*64
1504756961.49,45555,13.94,73300.0,-0.59,-29.89,-30.51,0,*65
1504756962.76,45556,13.94,73284.5,-0.59,-29.95,-30.77,0,*6F
1504756964.04,45557,13.94,73296.8,-0.59,-29.89,-30.51,0,*67
1504756965.3,45558,13.94,73284.0,-0.61,-30.01,-30.73,0,*6B
1504756966.53,45559,13.94,73290.5,-0.61,-30.11,-30.73,0,*6B
1504756967.76,45560,13.94,73302.8,-0.61,-29.83,-30.55,0,*66
1504756969.0,45561,13.94,73302.8,-0.61,-30.01,-30.55,0,*65
1504756970.26,45562,13.94,73302.0,-0.61,-30.17,-30.73,0,*65
1504756971.52,45563,13.94,73298.5,-0.59,-30.05,-30.67,0,*69
1504756972.75,45564,13.94,73282.0,-0.61,-30.11,-30.73,0,*65
1504756974.01,45565,13.94,73276.0,-0.63,-30.17,-30.83,0,*6F
1504756975.25,45566,13.94,73266.5,-0.61,-30.01,-30.67,0,*63
1504756976.5,45567,13.94,73278.8,-0.61,-30.17,-30.73,0,*60
1504756977.73,45568,13.94,73286.0,-0.61,-30.51,-31.05,0,*6D
1504756978.93,45569,13.94,73276.5,-0.61,-30.67,-31.17,0,*6A
1504756980.17,45570,13.94,73278.3,-0.61,-30.17,-30.83,0,*69
1504756981.4,45571,13.94,73286.8,-0.61,-30.17,-30.83,0,*68
1504756982.69,45572,13.94,73302.5,-0.63,-30.17,-30.89,0,*63
1504756983.91,45573,13.94,73296.3,-0.63,-30.45,-31.01,0,*64
1504756985.16,45574,13.94,73302.0,-0.63,-30.73,-31.33,0,*67
1504756986.38,45575,13.94,73296.3,-0.63,-30.33,-31.01,0,*63
1504756987.66,45576,13.94,73300.0,-0.67,-30.05,-30.73,0,*65
1504756988.92,45577,13.94,73302.3,-0.67,-29.51,-30.23,0,*68
1504756990.18,45578,13.94,73312.8,-0.67,-29.73,-30.33,0,*66
1504756991.46,45579,13.94,73308.8,-0.67,-29.35,-30.05,0,*60
1504756992.75,45580,13.94,73302.8,-0.67,-30.01,-30.77,0,*6C
1504756994.02,45581,13.94,73310.8,-0.67,-30.39,-31.11,0,*67
1504756995.26,45582,13.94,73292.8,-0.67,-30.39,-31.05,0,*61
1504756996.47,45583,13.94,73294.5,-0.69,-30.27,-30.83,0,*6E
1504756997.7,45584,13.94,73294.3,-0.69,-30.23,-30.73,0,*62
1504756998.96,45585,13.94,73304.8,-0.67,-30.17,-30.33,0,*6E
1504757000.18,45586,13.94,73300.0,-0.69,-30.55,-30.45,0,*64
1504757001.39,45587,13.94,73318.8,-0.69,-30.55,-30.23,0,*65
1504757002.59,45588,13.94,73302.3,-0.69,-30.11,-29.23,0,*62
1504757003.85,45589,13.94,73282.0,-0.69,-29.39,-28.05,0,*64
1504757005.07,45590,13.94,73282.0,-0.69,-29.07,-27.19,0,*63
1504757006.35,45591,13.94,73274.3,-0.67,-29.01,-26.13,0,*61
1504757007.61,45592,13.94,73280.5,-0.67,-29.17,-25.35,0,*62
1504757008.88,45593,13.94,73280.0,-0.67,-29.13,-24.15,0,*64
1504757010.11,45594,13.94,73284.5,-0.67,-28.37,-22.27,0,*63
1504757011.35,45595,13.94,73290.8,-0.67,-27.83,-20.69,0,*6A
1504757012.61,45596,13.94,73286.5,-0.63,-26.71,-19.13,0,*66
1504757013.88,45597,13.94,73296.3,-0.63,-24.87,-17.97,0,*6E
1504757015.09,45598,13.94,73298.8,-0.61,-22.63,-17.83,0,*6A
1504757016.31,45599,13.94,73300.8,-0.61,-20.79,-18.21,0,*65
1504757017.56,45600,13.94,73294.0,-0.59,-19.65,-18.83,0,*62
1504757018.81,45601,13.94,73294.3,-0.59,-18.73,-20.15,0,*61
1504757020.07,45602,13.94,73290.8,-0.59,-19.07,-23.23,0,*66
1504757021.3,45603,13.94,73290.5,-0.59,-19.75,-26.03,0,*65
1504757022.58,45604,13.94,73284.0,-0.63,-21.83,-28.59,0,*68
1504757023.84,45605,13.94,73282.3,-0.61,-23.95,-29.51,0,*67
1504757025.06,45606,13.94,73290.3,-0.61,-26.23,-30.17,0,*66
1504757026.29,45607,13.94,73294.5,-0.63,-27.71,-30.33,0,*65
1504757027.52,45608,13.94,73294.8,-0.61,-28.75,-30.45,0,*62
1504757028.78,45609,13.94,73298.5,-0.63,-29.35,-30.45,0,*64
1504757030.04,45610,13.94,73304.3,-0.63,-29.79,-30.73,0,*61
1504757031.31,45611,13.94,73306.0,-0.67,-30.01,-30.95,0,*6B
1504757032.58,45612,13.94,73302.5,-0.67,-30.05,-30.95,0,*6C
1504757033.85,45613,13.94,73302.0,-0.63,-29.95,-30.89,0,*65
1504757035.1,45614,13.94,73312.0,-0.67,-30.17,-31.05,0,*61
1504757036.38,45615,13.88,73314.0,-0.67,-30.17,-30.95,0,*68
1504757037.61,45616,13.88,73318.0,-0.69,-30.11,-30.61,0,*68
1504757038.81,45617,13.94,73324.3,-0.69,-30.11,-30.23,0,*6F
1504757040.0,45618,13.94,73316.8,-0.69,-30.11,-29.95,0,*65
1504757041.2,45619,13.94,73316.3,-0.69,-29.61,-29.61,0,*60
1504757042.44,45620,13.94,73322.8,-0.69,-29.39,-29.57,0,*62
1504757043.66,45621,13.94,73318.3,-0.69,-29.73,-29.61,0,*68
1504757044.85,45622,13.94,73312.8,-0.69,-30.45,-29.61,0,*66
1504757046.07,45623,13.94,73302.8,-0.71,-30.83,-29.07,0,*64
1504757047.29,45624,13.94,73294.5,-0.73,-31.05,-28.25,0,*6F
1504757048.56,45625,13.94,73290.0,-0.71,-30.61,-26.55,0,*66
1504757049.83,45626,13.88,73280.3,-0.75,-30.01,-24.87,0,*6A
1504757051.09,45627,13.94,73282.8,-0.75,-29.13,-22.97,0,*67
1504757052.34,45628,13.94,73280.8,-0.75,-28.05,-21.39,0,*69
1504757053.6,45629,13.94,73280.8,-0.75,-26.77,-19.95,0,*6E
1504757054.85,45630,13.94,73282.0,-0.75,-25.29,-18.45,0,*62
1504757056.07,45631,13.94,73286.0,-0.77,-23.39,-16.69,0,*66
1504757057.32,45632,13.94,73286.0,-0.75,-20.79,-15.63,0,*69
1504757058.57,45633,13.94,73286.5,-0.75,-19.03,-15.35,0,*6C
1504757059.81,45634,13.94,73292.0,-0.75,-18.21,-15.49,0,*61
1504757061.08,45635,13.88,73298.5,-0.75,-17.55,-14.79,0,*6E
1504757062.33,45636,13.94,73316.0,-0.75,-16.93,-13.61,0,*68
1504757063.57,45637,13.94,73322.5,-0.77,-16.55,-12.53,0,*61
1504757064.79,45638,13.88,73314.3,-0.75,-15.49,-11.19,0,*6F
1504757066.02,45639,13.88,73304.0,-0.75,-14.37,-10.09,0,*66
1504757067.27,45640,13.94,73306.0,-0.75,-12.61,-10.53,0,*62
1504757068.55,45641,13.94,73294.8,-0.75,-11.67,-12.65,0,*61
1504757069.79,45642,13.94,73304.3,-0.77,-11.63,-13.83,0,*6D
1504757071.02,45643,13.88,73302.0,-0.77,-10.67,-14.33,0,*65
1504757072.22,45644,13.88,73298.3,-0.77,-13.07,-17.31,0,*66
1504757073.42,45645,13.88,73304.0,-0.77,-15.07,-19.91,0,*65
1504757074.66,45646,13.88,73296.0,-0.77,-17.63,-23.03,0,*64
1504757075.91,45647,13.88,73296.3,-0.77,-22.73,-27.61,0,*62
1504757077.13,45648,13.94,73280.0,-0.77,-24.97,-30.55,0,*60
1504757078.36,45649,13.88,73280.3,-0.77,-26.13,-29.67,0,*66
1504757079.62,45650,13.94,73278.3,-0.77,-27.61,-30.05,0,*66
1504757080.87,45651,13.94,73290.0,-0.77,-28.43,-30.17,0,*6B
1504757082.1,45652,13.88,73292.5,-0.77,-28.69,-30.05,0,*63
1504757083.37,45653,13.88,73278.3,-0.75,-28.05,-29.13,0,*65
1504757084.59,45654,13.94,73264.5,-0.73,-28.09,-29.23,0,*6B
1504757085.8,45655,13.94,73284.0,-0.73,-28.63,-29.79,0,*69
1504757087.03,45656,13.88,73300.5,-0.73,-28.97,-30.17,0,*61
1504757088.26,45657,13.88,73304.0,-0.73,-29.29,-30.45,0,*63
1504757089.52,45658,13.88,73294.3,-0.71,-29.35,-30.45,0,*63
1504757090.77,45659,13.88,73290.3,-0.71,-29.73,-30.83,0,*6A
1504757092.03,45660,13.88,73284.0,-0.71,-29.89,-31.01,0,*6E
1504757093.27,45661,13.88,73294.3,-0.71,-30.05,-31.17,0,*64
1504757094.49,45662,13.88,73292.5,-0.71,-30.23,-31.33,0,*65
1504757095.73,45663,13.88,73292.0,-0.73,-30.51,-31.57,0,*61
1504757097.0,45664,13.94,73290.5,-0.71,-30.55,-31.61,0,*65
1504757098.2,45665,13.88,73288.5,-0.73,-30.67,-31.79,0,*6E
1504757099.45,45666,13.94,73292.5,-0.75,-30.73,-31.79,0,*6E
1504757100.7,45667,13.94,73302.8,-0.73,-30.73,-31.91,0,*6F
1504757101.95,45668,13.94,73300.5,-0.75,-30.73,-31.79,0,*60
1504757103.17,45669,13.88,73306.8,-0.75,-30.67,-31.79,0,*64
1504757104.42,45670,13.88,73308.0,-0.77,-30.73,-31.85,0,*68
1504757105.64,45671,13.88,73314.5,-0.77,-30.45,-31.51,0,*65
1504757106.87,45672,13.94,73318.0,-0.77,-29.89,-31.05,0,*6F
1504757108.13,45673,13.88,73310.5,-0.77,-29.89,-30.95,0,*66
1504757109.4,45674,13.94,73322.5,-0.77,-29.89,-30.77,0,*6D
1504757110.61,45675,13.94,73314.3,-0.77,-29.57,-30.67,0,*6E
1504757111.87,45676,13.88,73318.3,-0.77,-29.73,-30.89,0,*6B
1504757113.13,45677,13.88,73306.8,-0.77,-29.89,-30.77,0,*6E
1504757114.36,45678,13.88,73314.8,-0.77,-29.67,-30.55,0,*61
1504757115.63,45679,13.88,73310.0,-0.77,-29.89,-30.89,0,*61
1504757116.88,45680,13.88,73314.3,-0.77,-30.05,-30.89,0,*6B
1504757118.09,45681,13.94,73328.3,-0.77,-29.83,-30.67,0,*6C
1504757119.34,45682,13.88,73320.8,-0.77,-30.01,-30.51,0,*68
1504757120.61,45683,13.88,73318.5,-0.79,-30.05,-30.51,0,*63
1504757121.89,45684,13.88,73320.5,-0.79,-30.05,-30.17,0,*66
1504757123.14,45685,13.88,73326.5,-0.79,-30.05,-29.67,0,*68
1504757124.37,45686,13.88,73318.0,-0.81,-29.95,-29.39,0,*66
1504757125.6,45687,13.88,73322.8,-0.77,-29.45,-29.13,0,*6B
1504757126.82,45688,13.94,73316.0,-0.81,-28.75,-29.07,0,*6A
1504757128.02,45689,13.88,73284.3,-0.81,-28.31,-29.57,0,*6E
1504757129.25,45690,13.88,73292.0,-0.81,-28.31,-29.89,0,*65
1504757130.49,45691,13.88,73300.3,-0.79,-28.53,-29.83,0,*6D
1504757131.74,45692,13.88,73310.3,-0.79,-28.79,-29.45,0,*6C
1504757133.02,45693,13.88,73298.3,-0.79,-29.01,-28.75,0,*61
1504757134.3,45694,13.94,73304.3,-0.79,-29.01,-27.23,0,*6A
1504757135.55,45695,13.88,73308.5,-0.79,-28.53,-24.83,0,*64
1504757136.84,45696,13.88,73306.0,-0.79,-26.81,-23.23,0,*6B
1504757138.08,45697,13.88,73300.8,-0.81,-24.21,-20.73,0,*63
1504757139.28,45698,13.88,73302.8,-0.81,-20.73,-20.69,0,*64
1504757140.5,45699,13.88,73290.8,-0.81,-17.35,-19.23,0,*67
1504757141.71,45700,13.88,73302.5,-0.81,-21.17,-26.65,0,*6D
1504757142.94,45701,13.88,73296.8,-0.81,-28.15,-29.89,0,*6A
1504757144.21,45702,13.88,73298.8,-0.79,-28.85,-30.77,0,*6E
1504757145.49,45703,13.88,73296.5,-0.83,-29.17,-31.23,0,*60
1504757146.76,45704,13.88,73298.5,-0.85,-30.01,-31.39,0,*65
1504757148.03,45705,13.88,73300.5,-0.85,-30.51,-31.73,0,*6F
1504757149.3,45706,13.94,73312.0,-0.85,-30.51,-31.91,0,*60
1504757150.56,45707,13.88,73308.5,-0.85,-30.61,-31.85,0,*67
1504757151.83,45708,13.88,73292.8,-0.85,-30.77,-31.91,0,*6A
1504757153.09,45709,13.88,73304.3,-0.89,-30.83,-31.91,0,*6C
1504757154.33,45710,13.88,73306.0,-0.89,-30.67,-31.91,0,*6E
1504757155.57,45711,13.88,73296.0,-0.89,-30.23,-31.57,0,*65
1504757156.82,45712,13.94,73288.0,-0.89,-30.23,-31.39,0,*6E
1504757158.09,45713,13.88,73280.0,-0.89,-30.39,-31.61,0,*69
1504757159.33,45714,13.94,73304.5,-0.91,-30.39,-31.73,0,*64
1504757160.57,45715,13.88,73318.0,-0.91,-30.39,-31.57,0,*63
1504757161.82,45716,13.88,73310.5,-0.91,-30.17,-31.39,0,*64
1504757163.07,45717,13.94,73310.3,-0.91,-30.05,-31.23,0,*6D
1504757164.33,45718,13.88,73286.8,-0.91,-29.89,-31.11,0,*6F
1504757165.57,45719,13.88,73280.8,-0.91,-29.83,-31.11,0,*64
1504757166.82,45720,13.88,73272.0,-0.91,-30.01,-31.23,0,*6D
1504757168.05,45721,13.88,73264.8,-0.91,-29.73,-31.05,0,*65
1504757169.29,45722,13.88,73264.5,-0.89,-29.73,-31.05,0,*6F
1504757170.55,45723,13.88,73272.5,-0.91,-30.01,-31.11,0,*6F
1504757171.79,45724,13.88,73280.3,-0.89,-30.05,-31.29,0,*6E
1504757173.02,45725,13.88,73282.5,-0.91,-30.23,-31.39,0,*63
1504757174.25,45726,13.88,73294.3,-0.91,-30.17,-31.45,0,*6C
1504757175.48,45727,13.88,73304.8,-0.91,-30.17,-31.45,0,*6D
1504757176.7,45728,13.88,73300.8,-0.91,-30.23,-31.57,0,*66
1504757177.92,45729,13.88,73300.5,-0.91,-30.23,-31.57,0,*67
1504757179.19,45730,13.88,73302.8,-0.93,-30.39,-31.51,0,*60
1504757180.42,45731,13.88,73304.0,-0.95,-30.27,-31.61,0,*6B
1504757181.67,45732,13.88,73298.8,-0.95,-30.39,-31.61,0,*67
1504757182.87,45733,13.88,73300.3,-0.91,-30.23,-31.45,0,*6F
1504757184.13,45734,13.88,73300.0,-0.93,-30.27,-31.51,0,*6B
1504757185.33,45735,13.94,73308.3,-0.95,-30.11,-31.45,0,*6C
1504757186.57,45736,13.88,73306.0,-0.93,-29.95,-31.29,0,*67
1504757187.77,45737,13.88,73292.3,-0.95,-30.11,-31.33,0,*6F
1504757189.0,45738,13.94,73294.5,-0.95,-29.95,-31.11,0,*64
1504757190.22,45739,13.88,73294.8,-0.95,-30.05,-31.33,0,*64
1504757191.42,45740,13.88,73302.0,-0.95,-30.11,-31.29,0,*64
1504757192.68,45741,13.88,73286.5,-0.95,-29.89,-31.11,0,*67
1504757193.92,45742,13.88,73254.3,-0.95,-29.67,-30.89,0,*64
1504757195.18,45743,13.88,73254.8,-0.93,-29.67,-30.89,0,*63
1504757196.45,45744,13.88,73254.3,-0.93,-29.57,-30.77,0,*66
1504757197.73,45745,13.88,73258.3,-0.93,-29.39,-30.55,0,*6F
1504757199.0,45746,13.88,73258.3,-0.95,-29.39,-30.61,0,*6D
1504757200.27,45747,13.88,73278.8,-0.95,-29.39,-30.61,0,*6C
1504757201.53,45748,13.88,73260.5,-0.95,-29.39,-30.73,0,*60
1504757202.76,45749,13.88,73260.0,-0.93,-29.79,-31.01,0,*67
1504757204.01,45750,13.94,73276.5,-0.93,-29.95,-31.11,0,*6C
1504757205.26,45751,13.88,73276.3,-0.93,-30.05,-31.17,0,*6A
1504757206.49,45752,13.94,73280.3,-0.93,-30.11,-31.33,0,*6A
1504757207.72,45753,13.88,73272.3,-0.91,-30.17,-31.45,0,*6E
1504757208.98,45754,13.88,73276.5,-0.93,-30.27,-31.51,0,*6D
1504757210.21,45755,13.88,73280.8,-0.95,-30.27,-31.51,0,*6A
1504757211.45,45756,13.88,73296.3,-0.95,-30.39,-31.61,0,*65
1504757212.66,45757,13.88,73296.8,-0.95,-30.27,-31.45,0,*6D
1504757213.92,45758,13.94,73298.3,-0.93,-30.27,-31.51,0,*61
1504757215.16,45759,13.88,73284.5,-0.97,-30.51,-31.67,0,*60
1504757216.4,45760,13.88,73292.5,-0.97,-30.45,-31.73,0,*6A
1504757217.63,45761,13.88,73312.8,-0.95,-30.45,-31.61,0,*6A
1504757218.87,45762,13.88,73322.8,-0.99,-30.39,-31.73,0,*6D
1504757220.11,45763,13.88,73326.5,-0.99,-30.39,-31.57,0,*6A
1504757221.33,45764,13.94,73318.8,-0.99,-30.23,-31.39,0,*6E
1504757222.53,45765,13.88,73316.8,-0.99,-30.23,-31.29,0,*6E
1504757223.79,45766,13.88,73326.0,-0.99,-30.05,-31.23,0,*63
1504757225.05,45767,13.88,73326.8,-0.99,-29.89,-31.23,0,*6E
1504757226.28,45768,13.88,73316.0,-0.99,-29.45,-30.55,0,*61
1504757227.52,45769,13.88,73310.5,-0.99,-29.45,-30.73,0,*64
1504757228.74,45770,13.88,73294.8,-0.99,-29.45,-30.67,0,*69
1504757230.03,45771,13.94,73292.0,-0.97,-29.39,-30.61,0,*6B
1504757231.27,45772,13.88,73290.5,-0.99,-29.67,-30.89,0,*6B
1504757232.49,45773,13.88,73280.8,-0.97,-29.79,-31.05,0,*6E
1504757233.75,45774,13.88,73276.3,-0.99,-30.05,-31.23,0,*60
1504757235.0,45775,13.88,73276.3,-0.99,-30.17,-31.39,0,*69
1504757236.23,45776,13.88,73278.8,-0.97,-30.11,-31.33,0,*68
1504757237.45,45777,13.88,73274.5,-0.99,-30.33,-31.39,0,*6D
1504757238.68,45778,13.88,73282.3,-0.99,-30.33,-31.39,0,*62
1504757239.9,45779,13.88,73274.5,-0.99,-30.23,-31.39,0,*62
1504757241.13,45780,13.88,73274.5,-0.99,-30.05,-31.29,0,*61
1504757242.38,45781,13.94,73280.3,-0.99,-30.01,-31.23,0,*6E
1504757243.62,45782,13.88,73282.8,-0.99,-30.17,-31.29,0,*60
1504757244.9,45783,13.94,73284.8,-1.01,-30.17,-31.39,0,*50
1504757246.16,45784,13.88,73280.8,-1.01,-30.23,-31.39,0,*50
1504757247.41,45785,13.88,73280.0,-1.01,-30.33,-31.39,0,*50
1504757248.67,45786,13.88,73290.5,-1.01,-30.33,-31.39,0,*53
1504757249.96,45787,13.88,73288.8,-1.01,-30.01,-31.39,0,*53
1504757251.19,45788,13.88,73294.8,-1.01,-29.79,-31.45,0,*50
1504757252.46,45789,13.88,73318.0,-1.01,-29.45,-31.39,0,*55
1504757253.7,45790,13.88,73318.3,-1.01,-28.85,-31.29,0,*51
1504757254.94,45791,13.88,73308.3,-1.03,-29.13,-31.45,0,*56
1504757256.18,45792,13.88,73310.8,-1.03,-29.67,-31.61,0,*50
1504757257.46,45793,13.88,73308.8,-1.01,-30.01,-31.61,0,*5B
1504757258.68,45794,13.94,73314.3,-1.03,-30.39,-31.67,0,*53
1504757259.94,45795,13.88,73308.8,-1.03,-30.55,-31.61,0,*5E
1504757261.16,45796,13.94,73308.3,-1.03,-30.55,-31.67,0,*5B
1504757262.42,45797,13.94,73308.0,-1.03,-30.61,-31.61,0,*5B
1504757263.69,45798,13.94,73310.0,-1.05,-30.55,-31.61,0,*55
1504757264.92,45799,13.88,73316.0,-1.03,-30.45,-31.61,0,*53
1504757266.14,45800,13.88,73320.5,-1.05,-30.45,-31.67,0,*5C
1504757267.38,45801,13.88,73322.8,-1.05,-30.45,-31.45,0,*5D
1504757268.58,45802,13.88,73320.5,-1.07,-30.33,-31.33,0,*5C
1504757269.82,45803,13.94,73336.5,-1.07,-30.33,-31.39,0,*57
1504757271.04,45804,13.88,73338.3,-1.05,-30.23,-31.33,0,*59
1504757272.31,45805,13.88,73334.5,-1.07,-30.17,-31.23,0,*5C
1504757273.55,45806,13.88,73326.8,-1.05,-30.11,-31.17,0,*5C
1504757274.78,45807,13.88,73318.3,-1.07,-30.11,-31.11,0,*59
1504757276.02,45808,13.94,73316.3,-1.07,-30.11,-31.23,0,*57
1504757277.28,45809,13.88,73318.8,-1.05,-30.05,-31.05,0,*55
1504757278.52,45810,13.88,73320.0,-1.07,-30.11,-31.23,0,*5E
1504757279.75,45811,13.88,73318.3,-1.05,-30.11,-31.17,0,*5A
1504757280.96,45812,13.94,73312.5,-1.07,-30.27,-31.33,0,*58
1504757282.18,45813,13.88,73302.0,-1.07,-30.27,-31.33,0,*59
1504757283.41,45814,13.88,73294.5,-1.05,-30.11,-31.29,0,*52
1504757284.67,45815,13.88,73286.0,-1.07,-30.01,-31.11,0,*5B
1504757285.91,45816,13.88,73286.8,-1.07,-29.95,-30.95,0,*50
1504757287.17,45817,13.88,73286.8,-1.07,-30.01,-31.11,0,*59
1504757288.4,45818,13.88,73298.3,-1.07,-30.01,-31.01,0,*57
1504757289.64,45819,13.88,73298.3,-1.07,-30.11,-31.23,0,*57
1504757290.86,45820,13.88,73294.5,-1.07,-30.27,-31.33,0,*59
1504757292.06,45821,13.88,73292.3,-1.07,-30.33,-31.33,0,*5D
1504757293.32,45822,13.88,73308.0,-1.11,-30.17,-31.39,0,*55
1504757294.53,45823,13.88,73310.3,-1.11,-30.27,-31.33,0,*5D
1504757295.76,45824,13.88,73306.5,-1.11,-30.33,-31.39,0,*55